Location: Guferjoch
(46.7462°N, 8.4506°E)
Time: 00:15:22
(UTC+00:00)

CZ-2D R/B - Pass Details

Date: 14 July 2020
Orbit: 553 x 638 km, 97.9° (Epoch: 03 August)

Event Time Altitude Azimuth Distance (km) Brightness Sun altitude
Rises 02:37:31 0° 13° (NNE) 2,934 8.2 -9.9°
Reaches altitude 10° 02:39:45 10° 14° (NNE) 2,012 7.2 -9.6°
Maximum altitude 02:44:08 86° 103° (ESE) 625 3.6 -9.1°
Drops below altitude 10° 02:48:24 10° 193° (SSW) 1,949 5.6 -8.6°
Enters shadow 02:49:02 - 193° (SSW) 2,214 5.9 -8.5°
